sat.trackr.live / text

‹ back to catalog

STARLINK-30193

NORAD 57414 · 2023-102L

PAYLOAD ACTIVE UNKNOWN

§ Identity

Operator
Country
US
Launch date
2023-07-20
Launch site
AFWTR
Launch vehicle
Mass (kg)
RCS (m²)

Purposes: comms

External: N2YO · Heavens-Above · Gunter

§ Orbital elements

Epoch: 2026-05-25T04:00:03.998880Z

Period
93.78 min
Inclination
43.0011°
Eccentricity
0.0000866
Mean motion
15.35462385 rev/d
Perigee alt
459.0 km
Apogee alt
460.1 km
Semi-major
6,837.7 km
B*
1.9327e-3
RAAN
177.4445°
Arg perigee
329.2469°
Mean anomaly
145.8462°
Rev number
571

§ Raw data

STARLINK-301931 57414U 23102L   26145.16671295  .00068385  00000+0  19327-2 0  99972 57414  43.0011 177.4445 0000866 329.2469 145.8462 15.35462385  5714

JSON: /api/v1/satellites/57414 · /tle

For live sub-satellite position, see the globe view (requires WebGL).

§ Visibility from observer

Set your observer location to see the next 7 days of passes ≥ 10°. The values pass through the URL so the page stays shareable.

No JS? Fill the form by hand. The geolocation button needs JavaScript.